CW3175 Weather Reports


time (UTC)temp
F
wind
direction
speed
knots
gust
knots
rain 1hr
in
rain 24hr
in
rain mn
in
humidity
%
barometer
mb
20150902123920 76 197 0.0 0.0 0.00 0.00 0.00 86 1015.1
20150902122402 75 197 0.0 0.0 0.00 0.00 0.00 87 1014.9
20150902120841 74 194 0.0 3.5 0.00 0.00 0.00 88 1014.7
20150902115334 74 216 0.0 1.7 0.00 0.00 0.00 88 1014.7
20150902113827 74 217 0.0 0.0 0.00 0.00 0.00 87 1014.4
20150902112320 74 194 0.0 3.5 0.00 0.00 0.00 87 1014.2
20150902110813 74 220 0.0 4.3 0.00 0.00 0.00 87 1014.0
20150902105314 74 223 0.0 1.7 0.00 0.00 0.00 87 1013.9
20150902103742 74 224 0.0 2.6 0.00 0.00 0.00 86 1013.7
20150902102233 74 242 0.0 0.9 0.00 0.00 0.00 86 1013.6
20150902100727 75 244 0.0 3.5 0.00 0.00 0.00 86 1013.6
20150902095221 75 244 0.0 3.5 0.00 0.00 0.00 85 1013.6
20150902093715 75 277 0.0 0.0 0.00 0.00 0.00 84 1013.4
20150902092159 75 277 0.0 0.0 0.00 0.00 0.00 84 1013.4
20150902090653 75 277 0.0 0.0 0.00 0.00 0.00 83 1013.6
20150902085119 75 279 0.0 1.7 0.00 0.00 0.00 83 1013.6
20150902083557 75 296 0.0 3.5 0.00 0.00 0.00 82 1013.6
20150902082035 76 252 0.0 4.3 0.00 0.00 0.00 82 1013.6
20150902080534 76 236 0.0 3.5 0.00 0.00 0.00 82 1013.6
20150902075030 76 223 0.0 3.5 0.00 0.00 0.00 81 1013.6
20150902073513 76 229 0.0 7.0 0.00 0.00 0.00 81 1013.6
20150902072002 77 239 0.0 1.7 0.00 0.00 0.00 80 1013.6
20150902070503 77 233 0.0 4.3 0.00 0.00 0.00 80 1013.6
20150902064952 77 223 0.9 7.8 0.00 0.00 0.00 79 1013.6
20150902063452 77 241 0.9 7.8 0.00 0.00 0.00 79 1013.7
20150902061928 78 219 0.0 2.6 0.00 0.00 0.00 79 1014.0
20150902060425 78 212 0.0 7.8 0.00 0.00 0.00 78 1014.0
20150902054924 78 227 0.0 4.3 0.00 0.00 0.00 78 1014.1
20150902053406 79 236 0.9 8.7 0.00 0.00 0.00 78 1014.1
20150902051903 79 232 0.9 10.4 0.00 0.00 0.00 77 1014.1
20150902050343 79 266 0.9 7.0 0.00 0.00 0.00 77 1014.1
20150902044842 79 254 0.0 5.2 0.00 0.00 0.00 77 1014.1
20150902043333 80 232 0.9 8.7 0.00 0.00 0.00 78 1014.1
20150902041833 80 228 0.9 7.0 0.00 0.00 0.00 79 1014.1
20150902040333 80 201 4.3 10.4 0.00 0.00 0.00 79 1014.0
20150902034829 80 189 1.7 6.1 0.00 0.00 0.00 79 1014.1
20150902033328 80 182 3.5 8.7 0.00 0.00 0.00 79 1014.0
20150902031829 80 188 2.6 8.7 0.00 0.00 0.00 79 1014.0
20150902030327 81 200 2.6 11.3 0.00 0.00 0.00 78 1014.1
20150902024829 81 180 2.6 11.3 0.00 0.00 0.00 77 1014.1
20150902023320 81 194 3.5 9.6 0.00 0.00 0.00 76 1014.0
20150902021816 82 191 5.2 14.8 0.00 0.00 0.00 75 1013.9
20150902020311 82 199 4.3 10.4 0.00 0.00 0.00 73 1013.8
20150902014757 83 173 2.6 10.4 0.00 0.00 0.00 69 1013.6
20150902013256 84 150 2.6 8.7 0.00 0.00 0.00 68 1013.4
20150902011754 84 182 2.6 10.4 0.00 0.00 0.00 67 1013.1
20150902010231 85 188 1.7 9.6 0.00 0.00 0.00 66 1013.1
20150902004731 85 171 1.7 7.8 0.00 0.00 0.00 63 1013.0
20150902003227 86 196 2.6 9.6 0.00 0.00 0.00 62 1013.0
20150902001706 86 193 1.7 0.0 0.00 0.00 0.00 61 1012.9
20150902000842 86 176 1.7 7.8 0.00 0.00 0.00 60 1012.8
20150901235332 87 178 1.7 0.0 0.00 0.00 0.00 59 1012.6
20150901234551 87 189 0.9 8.7 0.00 0.00 0.00 59 1012.6
20150901233050 87 226 1.7 8.7 0.00 0.00 0.00 59 1012.8
20150901231550 88 175 3.5 12.2 0.00 0.00 0.00 58 1012.9
20150901230052 88 235 0.9 7.8 0.00 0.00 0.00 55 1013.1
20150901224544 89 194 1.7 0.0 0.00 0.00 0.00 52 1012.7
20150901222834 89 288 1.7 10.4 0.00 0.00 0.00 52 1012.8
20150901221328 89 192 2.6 12.2 0.00 0.00 0.00 52 1012.6
20150901215828 90 300 0.9 8.7 0.00 0.00 0.00 53 1012.6
20150901214322 90 244 0.9 8.7 0.00 0.00 0.00 52 1012.5
20150901212818 89 278 1.7 9.6 0.00 0.00 0.00 53 1012.6
20150901211316 89 270 3.5 11.3 0.00 0.00 0.00 54 1012.9
20150901205806 89 209 3.5 12.2 0.00 0.00 0.00 54 1012.9
20150901204306 90 223 2.6 12.2 0.00 0.00 0.00 54 1013.0
20150901202759 89 217 5.2 13.0 0.00 0.00 0.00 55 1013.0
20150901201300 88 177 4.3 10.4 0.00 0.00 0.00 57 1013.0
20150901195753 88 186 5.2 14.8 0.00 0.00 0.00 56 1013.1
20150901194251 88 199 5.2 13.0 0.00 0.00 0.00 56 1013.1
20150901192751 88 213 3.5 12.2 0.00 0.00 0.00 57 1013.3
20150901191247 88 223 2.6 13.9 0.00 0.00 0.00 58 1013.4
20150901185740 87 190 4.3 12.2 0.00 0.00 0.00 61 1013.6
20150901184240 86 187 5.2 13.9 0.00 0.00 0.00 63 1013.6
20150901182732 86 200 5.2 16.5 0.00 0.00 0.00 63 1013.7
20150901181233 87 164 7.8 16.5 0.00 0.00 0.00 64 1013.7
20150901175727 87 181 7.8 15.6 0.00 0.00 0.00 64 1014.1
20150901174227 87 182 7.8 14.8 0.00 0.00 0.00 65 1014.3
20150901172723 87 184 7.0 13.9 0.00 0.00 0.00 62 1014.5
20150901171221 88 180 4.3 10.4 0.00 0.00 0.00 62 1014.5
20150901165719 87 141 4.3 10.4 0.00 0.00 0.00 62 1014.6
20150901164217 86 163 4.3 10.4 0.00 0.00 0.00 64 1014.7
20150901162714 86 160 2.6 11.3 0.00 0.00 0.00 63 1014.7
20150901161214 85 165 2.6 9.6 0.00 0.00 0.00 66 1014.7
20150901155715 85 180 1.7 6.1 0.00 0.00 0.00 67 1014.8
20150901154209 85 265 0.9 6.1 0.00 0.00 0.00 67 1014.8
20150901152709 85 220 0.0 4.3 0.00 0.00 0.00 67 1014.7
20150901151207 84 190 0.0 4.3 0.00 0.00 0.00 69 1014.7
20150901145707 83 243 0.9 6.1 0.00 0.00 0.00 71 1014.8
20150901144203 82 268 0.0 3.5 0.00 0.00 0.00 73 1014.9
20150901142649 80 226 0.9 4.3 0.00 0.00 0.00 76 1014.9
20150901141145 80 212 0.0 5.2 0.00 0.00 0.00 78 1015.0
20150901134123 77 178 0.9 5.2 0.00 0.00 0.00 84 1015.1
20150901132623 76 174 0.9 7.8 0.00 0.00 0.00 86 1015.1
20150901131121 76 173 0.9 5.2 0.00 0.00 0.00 88 1015.1
20150901125610 75 224 0.9 7.8 0.00 0.00 0.00 90 1015.1